TimeCST,TemperatureF,Dew PointF,Humidity,Sea Level PressureIn,VisibilityMPH,Wind Direction,Wind SpeedMPH,Gust SpeedMPH,PrecipitationIn,Events,Conditions,WindDirDegrees,DateUTC
12:00 AM,59.0,55.4,88,29.82,7.0,NNE,5.8,-,0.00,Rain,Light Rain,30,2012-12-10 06:00:00
12:13 AM,57.2,55.4,94,29.83,6.0,North,3.5,-,0.01,Rain,Light Rain,10,2012-12-10 06:13:00
12:40 AM,57.2,55.4,94,29.82,4.0,NNE,5.8,-,0.03,Rain-Thunderstorm,Light Rain,30,2012-12-10 06:40:00
12:53 AM,57.0,54.0,89,29.81,4.0,NNE,6.9,-,0.05,Rain,Rain,30,2012-12-10 06:53:00
1:06 AM,57.2,53.6,88,29.83,4.0,NW,4.6,-,0.03,Rain-Thunderstorm,Rain,310,2012-12-10 07:06:00
1:10 AM,57.2,55.4,94,29.83,4.0,Variable,3.5,-,0.03,Rain-Thunderstorm,Light Rain,0,2012-12-10 07:10:00
1:16 AM,57.2,55.4,94,29.83,5.0,NNW,6.9,-,0.03,Rain,Light Rain,330,2012-12-10 07:16:00
1:53 AM,55.0,53.1,93,29.83,4.0,Variable,6.9,-,0.09,Rain,Light Rain,0,2012-12-10 07:53:00
2:03 AM,53.6,51.8,94,29.83,5.0,Variable,5.8,-,0.01,Rain,Light Rain,0,2012-12-10 08:03:00
2:18 AM,53.6,50.0,88,29.82,5.0,Variable,6.9,-,0.03,Rain,Light Rain,0,2012-12-10 08:18:00
2:53 AM,52.0,48.9,89,29.86,4.0,Variable,5.8,16.1,0.09,Rain,Rain,0,2012-12-10 08:53:00
2:56 AM,51.8,48.2,88,29.86,4.0,NNW,6.9,16.1,0.01,Rain,Rain,340,2012-12-10 08:56:00
3:03 AM,51.8,48.2,88,29.83,5.0,NNE,8.1,-,0.02,Rain,Rain,30,2012-12-10 09:03:00
3:06 AM,51.8,48.2,88,29.82,5.0,NNE,8.1,-,0.03,Rain,Rain,30,2012-12-10 09:06:00
3:41 AM,50.0,48.2,94,29.85,10.0,Variable,4.6,-,0.03,,Overcast,0,2012-12-10 09:41:00
3:53 AM,50.0,48.0,93,29.83,10.0,North,6.9,-,0.03,,Overcast,350,2012-12-10 09:53:00
4:26 AM,50.0,46.4,87,29.83,5.0,NW,6.9,17.3,0.02,Rain,Rain,320,2012-12-10 10:26:00
4:33 AM,50.0,46.4,87,29.80,6.0,Variable,5.8,-,0.02,Rain,Light Rain,0,2012-12-10 10:33:00
4:53 AM,48.9,46.9,93,29.82,8.0,NNW,3.5,-,0.03,,Mostly Cloudy,340,2012-12-10 10:53:00
5:30 AM,48.2,44.6,87,29.83,9.0,NNW,4.6,-,0.00,Rain,Light Rain,340,2012-12-10 11:30:00
5:53 AM,48.9,45.0,86,29.85,8.0,NNW,6.9,-,0.00,Rain,Light Rain,330,2012-12-10 11:53:00
6:53 AM,48.0,44.1,86,29.90,10.0,NW,6.9,17.3,0.01,,Overcast,320,2012-12-10 12:53:00
7:53 AM,46.0,39.0,76,29.93,10.0,NW,10.4,19.6,N/A,,Overcast,320,2012-12-10 13:53:00
8:53 AM,45.0,36.0,71,29.96,10.0,Variable,6.9,17.3,N/A,,Overcast,0,2012-12-10 14:53:00
9:53 AM,46.0,34.0,63,29.96,10.0,Variable,5.8,-,N/A,,Clear,0,2012-12-10 15:53:00
10:53 AM,46.9,32.0,56,29.98,10.0,NNW,8.1,17.3,N/A,,Clear,340,2012-12-10 16:53:00
11:53 AM,48.9,30.0,48,29.96,10.0,Variable,5.8,17.3,N/A,,Clear,0,2012-12-10 17:53:00
12:53 PM,50.0,30.9,48,29.94,10.0,NW,10.4,-,N/A,,Clear,310,2012-12-10 18:53:00
1:53 PM,50.0,30.0,46,29.93,10.0,NW,8.1,-,N/A,,Clear,310,2012-12-10 19:53:00
2:53 PM,48.9,30.9,50,29.95,10.0,Variable,5.8,-,N/A,,Clear,0,2012-12-10 20:53:00
3:53 PM,46.9,30.0,52,29.97,10.0,NW,8.1,-,N/A,,Clear,310,2012-12-10 21:53:00
4:53 PM,42.1,28.0,58,30.00,10.0,NW,8.1,-,N/A,,Clear,320,2012-12-10 22:53:00
5:53 PM,39.0,28.0,65,30.03,10.0,NW,3.5,-,N/A,,Clear,320,2012-12-10 23:53:00
6:53 PM,37.9,28.0,68,30.03,10.0,Calm,Calm,-,N/A,,Clear,0,2012-12-11 00:53:00
7:53 PM,35.1,30.0,82,30.04,10.0,Calm,Calm,-,N/A,,Clear,0,2012-12-11 01:53:00
8:53 PM,33.1,28.9,85,30.06,10.0,Calm,Calm,-,N/A,,Clear,0,2012-12-11 02:53:00
9:53 PM,35.1,28.0,76,30.08,10.0,Calm,Calm,-,N/A,,Clear,0,2012-12-11 03:53:00
10:53 PM,34.0,28.0,79,30.10,10.0,Variable,3.5,-,N/A,,Clear,0,2012-12-11 04:53:00
11:53 PM,33.1,27.0,78,30.12,10.0,NNE,4.6,-,N/A,,Clear,30,2012-12-11 05:53:00